FENGYUN 1C DEB, 29996

Orbit data source: Space-Track

FENGYUN 1C DEB, 29996 is space debris in SSO originally from a launch on Mon, 10 May 1999 UTC launched from the Taiyaun Space Center, China (TSC). Fengyun 1C debris stems from the Chinese weather satellite Fengyun-1C, which was intentionally destroyed by a Chinese anti-satellite missile in 2007. This event dramatically increased the amount of space debris, with thousands of trackable fragments posing hazards to satellites and human spaceflight. The Fengyun 1C debris cloud has become a focal point in discussions about space sustainability and the need for international regulations to prevent the creation of new debris.

Loading next visibility...
Identifier
29996, 1999-025LW
Orbit
SSO
Country
Flag of CNCN / PRC
Related business
Manufacturer
Unknown
Mission
Spacecraft
Bus & Motor
Unknown
Mass
Unknown
Launch date (UTC)
1999-05-10 (27 years ago)
Launch vehicle
Unknown
Launch site
Taiyaun Space Center, China (TSC)
Object type
Payload
Rocket body
Debris
Shape & HBR
Unknown shape, 0.1 m
Radar Cross Section
Medium (>0.1 m² and <1 m²)

Expand to show TLE details & history
Last TLE update: 6 days ago

TLE from 6 days ago
0 FENGYUN 1C DEB
1 29996U 99025LW  26155.11327057  .00002634  00000-0  13948-2 0  9997
2 29996  99.2909 203.2940 0127511 324.8018  88.8009 14.10552092985800
Epoch: 2026-06-04T02:43Z
TLE epoch observation values (Epoch: 2026-06-04T02:43:06.577Z)
Latitude
54.10238°
Longitude
-103.03815°
Altitude
865.573 km
Speed
7.425 km/s
True Right ascension
12h 41m 12s
True Declination
53° 56' 29"
Sunlit
Object was in daylight at epoch
Visualization orbit readout
Latitude
Unknown
Longitude
Unknown
Altitude
Unknown
Speed
Unknown
Apparent Right ascension
Unknown
Apparent Declination
Unknown
Sunlit
N/A
Visualization observer readout
Local Sidereal Time
00:12:41
Azimuth
Unknown
Elevation
Unknown
Doppler factor
Unknown
Orbital elements
Apogee altitude
946.909 km
Perigee altitude
762.456 km
Semi-major axis
7,232.819 km
Eccentricity
0.01275
Inclination
99.2909°
RAAN
203.294°
Arg. of periapsis
324.8018°
True anomaly
90.26208°
Mean anomaly
88.8009°
Eccentric anomaly
89.53146°
Mean motion
3.52843 °/min
Orbital period
102.03 mins
BSTAR
0.0013948
Loading maneuver chart data...
Computing Atmospheric mass density...
Loading historical data...
Loading historical data...
Loading historical data...
Loading historical data...
Loading historical data...
Loading historical data...
Loading historical data...

Documentation

Showing up to 5 results
|